Tracking 28888 objects as of 22-May-2024
HD Live streaming from Space Station
objects crossing your sky now

STARLINK-6335

Track STARLINK-6335 now!
10-day predictions
STARLINK-6335 is classified as:


NORAD ID: 56527
Int'l Code: 2023-065AA
Perigee: 565.7 km
Apogee: 566.7 km
Inclination: 43.0 °
Period: 95.8 minutes
Semi major axis: 6937 km
RCS: Unknown
Launch date: May 14, 2023
Source: United States (US)
Launch site: AIR FORCE EASTERN TEST RANGE (AFETR)
Your satellite tracking list
Your tracking list is empty




NASA's NSSDC Master Catalog

Two Line Element Set (TLE):
1 56527U 23065AA  24142.11554107  .00008035  00000-0  60894-3 0  9994
2 56527  42.9999 182.9749 0000707  37.1417 322.9475 15.02550033 57712
Source of the keplerian elements: AFSPC